TimeCDT,TemperatureF,Dew PointF,Humidity,Sea Level PressureIn,VisibilityMPH,Wind Direction,Wind SpeedMPH,Gust SpeedMPH,PrecipitationIn,Events,Conditions,WindDirDegrees,DateUTC
12:12 AM,37.4,28.4,70,30.19,10.0,South,13.8,21.9,N/A,,Clear,170,2012-10-30 05:12:00
12:33 AM,37.4,28.4,70,30.19,10.0,SSE,11.5,21.9,N/A,,Clear,160,2012-10-30 05:33:00
12:53 AM,37.4,28.4,70,30.19,10.0,SSE,10.4,16.1,N/A,,Clear,150,2012-10-30 05:53:00
1:12 AM,37.4,28.4,70,30.18,10.0,SSE,11.5,-,N/A,,Clear,160,2012-10-30 06:12:00
1:33 AM,35.6,28.4,75,30.18,10.0,SSE,11.5,16.1,N/A,,Clear,150,2012-10-30 06:33:00
1:52 AM,35.6,28.4,75,30.19,10.0,SE,9.2,-,N/A,,Clear,140,2012-10-30 06:52:00
2:12 AM,35.6,28.4,75,30.19,10.0,SE,10.4,-,N/A,,Clear,140,2012-10-30 07:12:00
2:33 AM,37.4,28.4,70,30.19,10.0,SE,8.1,-,N/A,,Clear,140,2012-10-30 07:33:00
2:52 AM,35.6,26.6,70,30.19,10.0,SE,8.1,-,N/A,,Clear,130,2012-10-30 07:52:00
3:33 AM,35.6,26.6,70,30.18,10.0,SE,8.1,-,N/A,,Clear,140,2012-10-30 08:33:00
3:52 AM,37.4,26.6,65,30.18,10.0,SE,9.2,-,N/A,,Clear,140,2012-10-30 08:52:00
4:12 AM,35.6,26.6,70,30.18,10.0,SE,9.2,-,N/A,,Clear,140,2012-10-30 09:12:00
4:33 AM,35.6,26.6,70,30.18,10.0,SE,10.4,17.3,N/A,,Clear,140,2012-10-30 09:33:00
4:52 AM,35.6,26.6,70,30.18,10.0,SE,6.9,-,N/A,,Clear,140,2012-10-30 09:52:00
5:33 AM,37.4,26.6,65,30.19,10.0,SE,9.2,-,N/A,,Overcast,140,2012-10-30 10:33:00
5:52 AM,37.4,26.6,65,30.19,10.0,SE,9.2,-,N/A,,Mostly Cloudy,140,2012-10-30 10:52:00
6:13 AM,37.4,26.6,65,30.18,10.0,SSE,10.4,-,N/A,,Clear,150,2012-10-30 11:13:00
6:33 AM,37.4,26.6,65,30.17,10.0,South,10.4,-,N/A,,Clear,170,2012-10-30 11:33:00
6:52 AM,37.4,24.8,60,30.18,10.0,South,10.4,-,N/A,,Clear,170,2012-10-30 11:52:00
7:13 AM,37.4,26.6,65,30.18,10.0,SE,8.1,-,N/A,,Clear,140,2012-10-30 12:13:00
7:33 AM,37.4,24.8,60,30.18,10.0,SE,6.9,-,N/A,,Scattered Clouds,140,2012-10-30 12:33:00
7:52 AM,37.4,24.8,60,30.18,10.0,SE,8.1,-,N/A,,Overcast,140,2012-10-30 12:52:00
8:32 AM,37.4,24.8,60,30.17,10.0,SE,9.2,-,N/A,,Overcast,140,2012-10-30 13:32:00
8:52 AM,37.4,26.6,65,30.18,10.0,SE,8.1,-,N/A,,Mostly Cloudy,140,2012-10-30 13:52:00
9:12 AM,37.4,24.8,60,30.18,10.0,SE,8.1,-,N/A,,Mostly Cloudy,130,2012-10-30 14:12:00
9:30 AM,39.2,24.8,56,30.18,10.0,SE,8.1,-,N/A,,Mostly Cloudy,130,2012-10-30 14:30:00
10:12 AM,39.2,24.8,56,30.17,10.0,SE,9.2,-,N/A,,Overcast,140,2012-10-30 15:12:00
10:33 AM,41.0,24.8,53,30.17,10.0,SSE,8.1,-,N/A,,Overcast,150,2012-10-30 15:33:00
10:53 AM,42.8,24.8,49,30.17,10.0,SE,10.4,17.3,N/A,,Overcast,140,2012-10-30 15:53:00
11:12 AM,42.8,24.8,49,30.18,10.0,SE,9.2,-,N/A,,Overcast,140,2012-10-30 16:12:00
11:53 AM,42.8,26.6,53,30.18,10.0,SE,9.2,-,N/A,,Overcast,140,2012-10-30 16:53:00
12:12 PM,42.8,26.6,53,30.18,10.0,SE,10.4,-,N/A,,Overcast,140,2012-10-30 17:12:00
12:33 PM,42.8,26.6,53,30.17,10.0,SE,12.7,16.1,N/A,,Overcast,140,2012-10-30 17:33:00
12:53 PM,42.8,26.6,53,30.17,10.0,SE,11.5,-,N/A,,Overcast,140,2012-10-30 17:53:00
1:12 PM,42.8,28.4,57,30.16,10.0,SSE,8.1,-,N/A,,Overcast,160,2012-10-30 18:12:00
1:33 PM,44.6,28.4,53,30.16,10.0,SSE,6.9,-,N/A,,Overcast,150,2012-10-30 18:33:00
1:52 PM,44.6,28.4,53,30.15,10.0,SE,10.4,-,N/A,,Overcast,140,2012-10-30 18:52:00
2:12 PM,44.6,28.4,53,30.14,10.0,SSE,6.9,-,N/A,,Overcast,150,2012-10-30 19:12:00
2:33 PM,44.6,28.4,53,30.14,10.0,SSE,5.8,-,N/A,,Overcast,160,2012-10-30 19:33:00
2:52 PM,44.6,28.4,53,30.13,10.0,South,8.1,-,N/A,,Overcast,190,2012-10-30 19:52:00
3:12 PM,46.4,28.4,50,30.13,10.0,SE,5.8,-,N/A,,Overcast,140,2012-10-30 20:12:00
3:33 PM,46.4,26.6,46,30.13,10.0,SE,6.9,-,N/A,,Overcast,130,2012-10-30 20:33:00
3:52 PM,46.4,28.4,50,30.13,10.0,SSW,4.6,-,N/A,,Overcast,200,2012-10-30 20:52:00
4:33 PM,46.4,26.6,46,30.13,10.0,South,3.5,-,N/A,,Overcast,170,2012-10-30 21:33:00
4:52 PM,46.4,26.6,46,30.12,10.0,Calm,Calm,-,N/A,,Overcast,0,2012-10-30 21:52:00
5:12 PM,46.4,28.4,50,30.12,10.0,Calm,Calm,-,N/A,,Overcast,0,2012-10-30 22:12:00
5:32 PM,46.4,28.4,50,30.11,10.0,Calm,Calm,-,N/A,,Overcast,0,2012-10-30 22:32:00
6:13 PM,44.6,26.6,49,30.11,10.0,Calm,Calm,-,N/A,,Overcast,0,2012-10-30 23:13:00
6:32 PM,44.6,28.4,53,30.11,10.0,Calm,Calm,-,N/A,,Overcast,0,2012-10-30 23:32:00
7:12 PM,44.6,28.4,53,30.10,10.0,Calm,Calm,-,N/A,,Overcast,0,2012-10-31 00:12:00
7:32 PM,42.8,28.4,57,30.10,10.0,Calm,Calm,-,N/A,,Overcast,0,2012-10-31 00:32:00
7:53 PM,42.8,30.2,61,30.10,10.0,Calm,Calm,-,N/A,,Overcast,0,2012-10-31 00:53:00
8:12 PM,42.8,30.2,61,30.10,10.0,Calm,Calm,-,N/A,,Overcast,0,2012-10-31 01:12:00
8:32 PM,42.8,30.2,61,30.10,10.0,Calm,Calm,-,N/A,,Overcast,0,2012-10-31 01:32:00
8:53 PM,42.8,30.2,61,30.09,10.0,Calm,Calm,-,N/A,,Overcast,0,2012-10-31 01:53:00
9:12 PM,42.8,30.2,61,30.09,10.0,Calm,Calm,-,N/A,,Overcast,0,2012-10-31 02:12:00
9:32 PM,41.0,30.2,65,30.08,10.0,ESE,3.5,-,N/A,,Overcast,110,2012-10-31 02:32:00
9:53 PM,41.0,30.2,65,30.07,10.0,SE,4.6,-,N/A,,Scattered Clouds,130,2012-10-31 02:53:00
10:12 PM,39.2,30.2,70,30.08,10.0,Calm,Calm,-,N/A,,Mostly Cloudy,0,2012-10-31 03:12:00
10:33 PM,37.4,30.2,75,30.08,10.0,Calm,Calm,-,N/A,,Scattered Clouds,0,2012-10-31 03:33:00
10:53 PM,37.4,30.2,75,30.08,10.0,Calm,Calm,-,N/A,,Clear,0,2012-10-31 03:53:00
11:12 PM,37.4,30.2,75,30.09,10.0,ESE,3.5,-,N/A,,Scattered Clouds,120,2012-10-31 04:12:00
11:33 PM,35.6,30.2,81,30.09,10.0,Calm,Calm,-,N/A,,Scattered Clouds,0,2012-10-31 04:33:00
11:53 PM,35.6,30.2,81,30.10,10.0,Calm,Calm,-,N/A,,Clear,0,2012-10-31 04:53:00